TimePDT,TemperatureF,Dew PointF,Humidity,Sea Level PressureIn,VisibilityMPH,Wind Direction,Wind SpeedMPH,Gust SpeedMPH,PrecipitationIn,Events,Conditions,WindDirDegrees,DateUTC
12:56 AM,60.1,46.0,60,29.93,10.0,Calm,Calm,-,N/A,,Clear,0,2013-08-27 07:56:00
1:56 AM,59.0,46.9,64,29.91,10.0,WNW,3.5,-,N/A,,Clear,300,2013-08-27 08:56:00
2:56 AM,57.9,46.9,67,29.90,10.0,Calm,Calm,-,N/A,,Clear,0,2013-08-27 09:56:00
3:56 AM,54.0,46.9,77,29.90,10.0,Calm,Calm,-,N/A,,Clear,0,2013-08-27 10:56:00
4:56 AM,53.1,46.9,80,29.90,10.0,Calm,Calm,-,N/A,,Clear,0,2013-08-27 11:56:00
5:56 AM,52.0,46.9,83,29.90,10.0,Calm,Calm,-,N/A,,Clear,0,2013-08-27 12:56:00
6:56 AM,53.1,46.9,80,29.91,10.0,Calm,Calm,-,N/A,,Clear,0,2013-08-27 13:56:00
7:56 AM,57.0,48.0,72,29.91,10.0,Calm,Calm,-,N/A,,Clear,0,2013-08-27 14:56:00
8:56 AM,64.0,48.9,58,29.90,10.0,NNE,3.5,-,N/A,,Clear,30,2013-08-27 15:56:00
9:56 AM,69.1,48.9,49,29.88,10.0,ENE,3.5,-,N/A,,Clear,60,2013-08-27 16:56:00
10:56 AM,75.9,50.0,40,29.87,10.0,Variable,3.5,-,N/A,,Clear,0,2013-08-27 17:56:00
11:56 AM,80.1,51.1,36,29.85,10.0,Calm,Calm,-,N/A,,Clear,0,2013-08-27 18:56:00
12:56 PM,84.9,51.1,31,29.83,10.0,Calm,Calm,-,N/A,,Clear,0,2013-08-27 19:56:00
1:56 PM,88.0,50.0,27,29.82,10.0,Variable,6.9,-,N/A,,Clear,0,2013-08-27 20:56:00
2:56 PM,90.0,52.0,27,29.80,10.0,NNW,10.4,-,N/A,,Clear,330,2013-08-27 21:56:00
3:56 PM,87.1,51.1,29,29.79,10.0,West,10.4,17.3,N/A,,Clear,270,2013-08-27 22:56:00
4:56 PM,86.0,52.0,31,29.79,10.0,WSW,8.1,-,N/A,,Clear,250,2013-08-27 23:56:00
5:56 PM,84.0,52.0,33,29.80,10.0,NNW,6.9,-,N/A,,Clear,330,2013-08-28 00:56:00
6:56 PM,79.0,53.1,40,29.81,10.0,NNW,5.8,-,N/A,,Clear,340,2013-08-28 01:56:00
7:56 PM,72.0,52.0,49,29.83,10.0,North,12.7,19.6,N/A,,Clear,350,2013-08-28 02:56:00
8:56 PM,71.1,52.0,51,29.84,10.0,NW,6.9,-,N/A,,Clear,310,2013-08-28 03:56:00
9:56 PM,66.9,54.0,63,29.85,10.0,Calm,Calm,-,N/A,,Clear,0,2013-08-28 04:56:00
10:56 PM,64.9,54.0,68,29.86,10.0,Calm,Calm,-,N/A,,Clear,0,2013-08-28 05:56:00
11:56 PM,63.0,53.1,70,29.85,10.0,Calm,Calm,-,N/A,,Clear,0,2013-08-28 06:56:00